Retour au catalogue

JINJUSat 1B

JINJUSAT-1B

ActifRadio amateurSSO
NORAD 63210·PAYLOAD·🇰🇷 South Korea

Lancé Mar 15, 2025 depuis Vandenberg Space Force Base

Loading…

Prochains Passages (prochaines 24 heures)

TLE

FraisSource: Space-Track

Époque: Sep 14, 2026, 15:51 UTC

1 63210U 25052A   26257.66102173  .00014576  00000-0  41676-3 0  9994
2 63210  97.3865 154.6417 0005059 109.5394 250.6397 15.36069214 83820

Suivez JINJUSat 1B en temps réel avec AllMySat

Download on the App Store